{"data":{"norad_id":59760,"intl_designator":"2024-091H","name":"STARLINK-11098 [DTC]","alt_names":[],"object_type":"PAYLOAD","status":"ACTIVE","operator":null,"country":"US","launch_date":"2024-05-14","launch_site_code":"AFWTR","launch_vehicle":null,"mission":null,"orbit_class":"UNKNOWN","rcs_meters":null,"size_class":null,"mass_kg":null,"dimensions":null,"purposes":["comms"],"wikipedia_slug":null,"has_3d_model":false,"image_url":null,"decayed_at":null,"tle_current":{"epoch":"2026-09-21T03:37:09.197760Z","epoch_age_seconds":115081,"freshness":"FRESH","line1":"1 59760U 24091H   26264.15080090  .00000100  00000+0  56872-5 0  9999","line2":"2 59760  53.1594 322.6418 0001231  85.5698 274.5460 15.69710592136216","mean_motion":15.69710592,"eccentricity":0.0001231,"inclination_deg":53.1594,"raan_deg":322.6418,"arg_perigee_deg":85.5698,"mean_anomaly_deg":274.546,"bstar":5.6872e-6,"rev_number":13621,"period_min":91.736655619127,"perigee_km":358.89562552378,"apogee_km":360.55448716205,"semimajor_km":6737.8620563429,"source":"CELESTRAK","updated_at":"2026-09-22T09:00:49.068252Z"}}}